Location: Erlach
(47.0430°N, 7.0996°E)
Time: 06:44:46
(UTC+00:00)

Cosmos 1763 Rocket - Pass Details

Date: 07 June 2020
Orbit: 733 x 780 km, 74.0° (Epoch: 04 July)

Event Time Altitude Azimuth Distance (km) Brightness Sun altitude
Exits shadow 00:05:57 38° 214° (SW) 1,111 3.9 -19.7°
Maximum altitude 00:07:54 77° 293° (WNW) 760 3.4 -19.7°
Drops below altitude 10° 00:12:59 10° 20° (NNE) 2,246 7.1 -19.5°
Sets 00:15:21 0° 22° (NNE) 3,172 8.2 -19.4°
